Location: Trois-Rivi�res
(46.3500°N, 72.5500°W)
Time: 01:53:22
(UTC-04:00)

ISS - Pass Details

Date: 11 October 2017
Orbit: 401 x 408 km, 51.6° (Epoch: 18 October)

Event Time Altitude Azimuth Distance (km) Brightness Sun altitude
Rises 20:26:08 0° 292° (WNW) 2,327 1.4 -24.0°
Reaches altitude 10° 20:28:22 10° 281° (W) 1,465 0.1 -24.4°
Enters shadow 20:30:28 26° 246° (WSW) 847 -1.8 -24.8°
